Regional Weather Roundup
Issued by NWS Midland/Odessa, TX

Skip options and go directly to product.
Home | Oldest Version | Previous Version | Current Version | All | Graphics & Text | Save Text | Print | Product List | Glossary On

Skip product version selection by date and time.   
767
ASUS44 KMAF 211510
RWRMAF
MIDLAND AREA WEATHER ROUNDUP
NATIONAL WEATHER SERVICE MIDLAND TX
900 AM CST SUN DEC 21 2014

...IN SOUTHWEST TEXAS AND SOUTHEAST NEW MEXICO...

CITY           SKY/WX    TMP DP  RH WIND       PRES   REMARKS
ALPINE         MOSUNNY   47  24  40 SW13G18   30.11R
ANDREWS        FAIR      37  37 100 SW6       29.97F WCI  32
ARTESIA        SUNNY     43  25  49 SW10      29.95F WCI  37
BIG SPRING     CLOUDY    47  43  85 S10       30.01S
CARLSBAD       SUNNY     39  29  67 SE8       29.96F WCI  33
DRYDEN           N/A     50  49  96 S6        30.04R
FORT STOCKTON  PTSUNNY   48  27  44 SW13      30.01R
GUAD PASS      NOT AVBL
HOBBS          SUNNY     34  34 100 SW5       29.96F WCI  30
MARFA          MOSUNNY   39  28  65 CALM      30.08S
MIDLAND AIRPK  CLOUDY    43  43 100 SW8       30.00S FOG     WCI  39
MIDLAND INTL   CLOUDY    43  42  97 SW12      29.98S FOG     WCI  37
ODESSA         CLOUDY    43  41  93 SW7       30.00R FOG     WCI  39
PECOS          PTSUNNY   34  27  74 CALM      30.01F
PRESIDIO       FAIR      44  31  60 CALM      30.09R
SEMINOLE       FOG       37  37 100 SW8       29.96F VSB 1/4 WCI  30
SNYDER         CLOUDY    47  43  85 SW13      29.97S
WINK           FOG       34  31  88 CALM      29.99S VSB<1/4
$$
...OTHER STATIONS IN TEXAS...

CITY           SKY/WX    TMP DP  RH WIND       PRES   REMARKS
ABILENE        CLOUDY    49  44  83 S15       30.00F
AMARILLO       SUNNY     31  30  96 S6        29.84F WCI  25
AUSTIN         CLOUDY    51  46  83 SE3       30.11R
BROWNSVILLE    CLOUDY    60  57  89 N7        30.07S FOG
CORPUS CHRISTI CLOUDY    54  52  93 N12       30.11R FOG
DALLAS FTW     CLOUDY    47  43  86 S12       30.09R
DEL RIO        CLOUDY    50  46  86 SE9       30.08S FOG
EL PASO        PTCLDY    40  29  64 SE7       30.07R WCI  35
HOUSTON INT    CLOUDY    50  45  83 NE7       30.13F
LUBBOCK        MOSUNNY   40  36  86 SW14      29.90S WCI  32
SAN ANGELO     CLOUDY    49  44  83 SW15      30.02S
SAN ANTONIO    CLOUDY    52  49  89 S8        30.11R FOG
WACO           CLOUDY    48  45  89 SE8       30.10F
WICHITA FALLS  NOT AVBL
$$
...OTHER LOCATIONS IN NEW MEXICO...

CITY           SKY/WX    TMP DP  RH WIND       PRES   REMARKS
ALAMAGORDO     PTCLDY    32  27  80 SE7       30.05F WCI  26
ALBUQUERQUE    MOCLDY    30  24  78 CALM      30.05R
CANNON AFB     SUNNY     37  24  58 W13       29.88F WCI  29
CLOVIS         SUNNY     39  23  52 W16       29.87S WCI  30
HOLLOMAN AFB   PTCLDY    30  25  79 SE1       30.04F
ROSWELL        SUNNY     32  23  69 SE5       29.93F WCI  27
RUIDOSO        CLEAR     37  19  48 NW16      30.01R WCI  28
SANTA FE       MOCLDY    33  23  66 N15       29.99R WCI  23
TRUTH OR CONSE CLEAR     34  26  72 CALM      30.04F
TUCUMCARI      PTCLDY    35  24  64 W6        29.83F WCI  30
$$

USA.gov is the U.S. government's official web portal to all federal, state and local government web resources and services.